Find Local Weather

World > North America > United States > New York

New York, New York Regional Weather

Lat: 40.71N, Lon: 74.01W
Wx Zone: NYZ072
Feedback
Expires:201804220900;;320322
ASUS41 KPHI 220813
RWRPHI

REGIONAL WEATHER ROUNDUP
NATIONAL WEATHER SERVICE MOUNT HOLLY NJ
400 AM EDT SUN APR 22 2018

NOTE:  "FAIR" INDICATES FEW OR NO CLOUDS BELOW 12,000 FEET WITH NO
SIGNIFICANT WEATHER AND/OR OBSTRUCTIONS TO VISIBILITY.

 * = STATION DOES NOT REPORT PRECIPITATION (E.G. RAIN, SNOW, ETC.) 
        OR FOG.


PAZ001-021-NYZ056-072-MDZ011-DCZ001-220900-
OTHER NEARBY LOCATIONS
  
CITY           SKY/WX    TMP DP  RH WIND       PRES   REMARKS
HARRISBURG     MOCLDY    42  34  73 CALM      30.38R                  
STATE COLLEGE  FAIR      39  23  52 CALM      30.38S                  
WILLIAMSPORT   FAIR      35  26  69 CALM      30.40S                  
BINGHAMTON     FAIR      36  15  42 NW3       30.35F                  
NEW YORK CITY  FAIR      47  18  31 VRB5      30.40R                  
BALTIMORE      CLOUDY    47  36  65 CALM      30.37S                  
WASHINGTON DC  CLOUDY    50  40  68 S7        30.38S                  

$$
  

SKY/WX - Weather  TMP - Temperature  DP - Dewpoint  RH - Relative Humidity
WIND - Wind Direction/Speed PRES - Barometric Pressure